Location: Namasale
(1.5000°N, 32.6167°E)
Time: 19:44:23
(UTC+00:00)

Vanguard 1 Rocket - Pass Details

Date: 26 April 2021
Orbit: 652 x 4224 km, 34.3° (Epoch: 10 May)

Event Time Altitude Azimuth Distance (km) Brightness Sun altitude
Rises 22:42:05 0° 233° (SW) 6,320 - -69.5°
Reaches altitude 10° 22:48:37 10° 214° (SW) 5,981 - -68.4°
Maximum altitude 23:00:35 18° 177° (S) 6,234 - -66.2°
Exits shadow 23:07:10 16° 159° (SSE) 6,695 11.6 -65.0°
Drops below altitude 10° 23:15:18 10° 141° (SE) 7,412 12.0 -63.3°
Sets 23:25:29 0° 123° (ESE) 8,401 12.5 -61.2°
